x

Frying Pan Shoals, Nc Buoy (41013) Weather Station

12:20 - Wed 29th Mar 2017 All times are EDT. -4 hours from GMT.

  • Wind
    13mph, 18mph gusts
  • Sea Temp 73°f
  • Air Temp 68°f
  • Sea Pressure 1016.8mb
  • Frying Pan Shoals, Nc Buoy
  • Frying Pan Shoals, Nc Buoy

More Historic Weather Station data

Upgrade to MSW Pro to gain access to the past 30 days of data for over 8000 Wavebouys and Weather Stations around the globe.

Join Pro

Comparision Forecast

View Surf forecast
   
mer. 03/29 12:20  -   -   -  13 18 mph 1016.8mb 73f 68f
12:10  -   -   -  13 16 mph 1016.8mb 73f 69f
12:00  -   -   -  13 16 mph 1016.6mb 73f 69f
11:50 3.5ft 11s 5s 13 18 mph 1016.5mb 74f 68f
11:40 3.5ft  -  5s 13 16 mph 1016.6mb 74f 68f
11:30  -   -   -  13 18 mph 1016.6mb 74f 68f
11:20  -   -   -  13 18 mph 1016.5mb 74f 68f
11:10  -   -   -  13 16 mph 1016.4mb 74f 69f
11:00  -   -   -  13 18 mph 1016.3mb 74f 68f
10:50 4ft 10s 6s 13 18 mph 1016.3mb 74f 68f
10:40 4ft  -  6s 13 18 mph 1016mb 74f 68f
10:30  -   -   -  13 18 mph 1016mb - -
10:20  -   -   -  13 18 mph 1015.9mb 74f 67f
10:10  -   -   -  13 16 mph 1015.8mb 74f 68f
10:00  -   -   -  13 16 mph 1015.6mb 74f 68f
9:50 4.5ft 10s 6s 13 16 mph 1015.5mb 74f 68f
9:40 4.5ft  -  6s 13 16 mph 1015.5mb 74f 68f
9:30  -   -   -  13 16 mph 1015.5mb 74f 68f
9:20  -   -   -  13 16 mph 1015.4mb 74f 69f
9:10  -   -   -  13 16 mph 1015.1mb 74f 69f
9:00  -   -   -  13 18 mph 1015.1mb 74f 69f
8:50 3.5ft 10s 5s 13 18 mph 1015.1mb 74f 69f
8:40 3.5ft  -  5s 16 20 mph 1015.1mb 74f 69f
8:30  -   -   -  16 20 mph 1015.1mb 74f 69f
8:20  -   -   -  18 22 mph 1015mb 74f 69f
8:10  -   -   -  18 22 mph 1014.9mb 74f 69f
8:00  -   -   -  18 22 mph 1014.6mb 74f 69f
7:50 4.5ft 11s 6s 18 25 mph 1014.5mb 74f 69f
7:40  -   -   -  20 25 mph 1014.4mb 73f 69f
7:30  -   -   -  18 22 mph 1014.4mb 73f 68f
7:20  -   -   -  16 22 mph 1014.5mb 73f 68f
7:10  -   -   -  16 20 mph 1014.4mb 73f 68f
7:00  -   -   -  13 16 mph 1014.1mb 73f 68f
6:50 4.5ft 10s 6s 13 18 mph 1014mb 73f 68f
6:40 4.5ft  -  6s 13 16 mph 1013.9mb 73f 67f
6:30  -   -   -  11 16 mph 1013.8mb 73f 67f
6:20  -   -   -  11 16 mph 1013.8mb 73f 67f
6:10  -   -   -  11 16 mph 1013.6mb 73f 67f
6:00  -   -   -  11 16 mph 1013.5mb 73f 67f
5:50 4.5ft 10s 6s 11 16 mph 1013.5mb 72f 67f
5:40 4.5ft  -  6s 11 16 mph 1013.5mb 72f 67f
5:30  -   -   -  11 16 mph 1013.4mb 72f 66f
5:20  -   -   -  11 16 mph 1013.3mb 72f 66f
5:10  -   -   -  13 16 mph 1013.3mb 72f 66f
5:00  -   -   -  13 16 mph 1013.1mb 71f 66f
4:50 4.5ft 10s 6s 13 18 mph 1013mb 71f 66f
4:40 4.5ft  -  6s 13 18 mph 1013mb 71f 66f
4:30  -   -   -  13 16 mph 1013mb 71f 67f
4:20  -   -   -  13 16 mph 1012.9mb 71f 67f
4:10  -   -   -  13 16 mph 1012.8mb 70f 67f
4:00  -   -   -  13 18 mph 1012.6mb 70f 67f
3:50 5ft 10s 6s 13 18 mph 1012.8mb 70f 67f
3:40 5ft  -  6s 16 18 mph 1012.8mb 70f 67f
3:30  -   -   -  16 18 mph 1012.9mb 70f 67f
3:20  -   -   -  16 18 mph 1012.9mb 70f 67f
3:10  -   -   -  16 18 mph 1013mb 70f 67f
3:00  -   -   -  16 18 mph 1013mb 70f 67f
2:50 5ft 10s 5s 16 20 mph 1013mb 70f 67f
2:40  -   -   -  16 18 mph 1013.1mb 70f 67f
2:30  -   -   -  16 18 mph 1013.1mb 70f 67f
2:20  -   -   -  16 20 mph 1013.1mb 70f 67f
2:10  -   -   -  16 20 mph 1013.3mb - 67f
2:00  -   -   -  13 18 mph 1013.3mb 70f 66f
1:50 5.5ft 11s 6s 13 18 mph 1013.5mb 70f 66f
1:40 5.5ft  -  6s 16 20 mph 1013.5mb 70f 67f
1:30  -   -   -  16 20 mph 1013.5mb 71f 67f
1:20  -   -   -  16 25 mph 1013.6mb 71f 67f
1:10  -   -   -  16 22 mph 1013.5mb 71f 67f
1:00  -   -   -  16 22 mph 1013.5mb 71f 67f
12:50 5ft 11s 5s 18 22 mph 1013.9mb 71f 68f
12:40 5ft  -  5s 18 22 mph 1013.8mb 71f 68f
12:30  -   -   -  18 25 mph 1013.3mb 71f 69f
12:20  -   -   -  20 25 mph 1013.1mb 71f 71f
12:10  -   -   -  22 27 mph 1013mb 71f 71f
12:00  -   -   -  22 27 mph 1013.1mb 72f 71f
mar. 03/28 11:50 5ft 10s 5s 22 25 mph 1013.1mb 72f 72f
11:40  -   -   -  22 29 mph 1013mb 72f 72f
11:30  -   -   -  22 27 mph 1013mb 72f 72f
11:20  -   -   -  22 29 mph 1013mb 72f 72f
11:10  -   -   -  22 29 mph 1012.9mb 73f 73f
11:00  -   -   -  25 29 mph 1012.9mb 73f 73f
10:50 5ft 10s 5s 22 29 mph 1013mb 73f 73f
10:40  -   -   -  22 29 mph 1013mb 73f 73f
10:30  -   -   -  20 27 mph 1013.1mb 73f 73f
10:20  -   -   -  20 27 mph 1013.3mb 73f 73f
10:10  -   -   -  20 25 mph 1013.3mb 73f 74f
10:00  -   -   -  20 25 mph 1013.1mb 73f 73f
9:50 5ft 10s 5s 20 25 mph 1013.1mb 73f 74f
9:40 5ft  -  5s 20 25 mph 1013.1mb 73f 74f
9:30  -   -   -  20 25 mph 1013.1mb 73f 74f
9:20  -   -   -  22 27 mph 1013mb 74f 74f
9:10  -   -   -  22 27 mph 1013mb 73f 74f
9:00  -   -   -  22 27 mph 1012.9mb 73f 74f
8:50 5ft 10s 5s 22 27 mph 1012.9mb 73f 74f
8:40 5ft  -  5s 22 27 mph 1012.6mb 73f 74f
8:30  -   -   -  22 27 mph 1012.5mb 73f 74f
8:20  -   -   -  20 25 mph 1012.5mb 73f 74f
8:10  -   -   -  22 27 mph 1012.5mb 73f 74f
8:00  -   -   -  22 27 mph 1012.5mb 74f 74f
7:50 5ft 11s 5s 22 27 mph 1012.4mb 74f 74f
7:40 5ft  -  5s 22 29 mph 1012.1mb 74f 74f
7:30  -   -   -  25 29 mph 1012.3mb 74f 74f
7:20  -   -   -  25 29 mph 1012.1mb 74f 74f
7:10  -   -   -  25 29 mph 1012.1mb 74f 74f
7:00  -   -   -  22 29 mph 1012.1mb 74f 74f
6:50 5ft 11s 5s 22 27 mph 1012mb 74f 74f
6:40 5ft  -  5s 22 29 mph 1011.9mb 74f 74f
6:30  -   -   -  22 29 mph 1012mb 74f 74f
6:20  -   -   -  22 27 mph 1011.9mb 74f 74f
6:10  -   -   -  22 27 mph 1012mb 74f 74f
6:00  -   -   -  22 27 mph 1011.9mb 73f 74f
5:30  -   -   -  20 27 mph 1012mb 73f 73f
5:20  -   -   -  20 27 mph 1012.3mb 73f 73f
5:10  -   -   -  20 25 mph 1012.4mb 73f 73f
5:00  -   -   -  20 25 mph 1012.5mb 73f 73f
11:30  -   -   -  22 25 mph 1016.3mb 73f 72f
11:20  -   -   -  20 25 mph 1016.5mb 74f 72f
11:10  -   -   -  20 25 mph 1016.5mb 74f 72f
11:00  -   -   -  22 27 mph 1016.5mb 74f 72f
10:50 5.5ft 10s 6s 22 27 mph 1016.5mb 74f 72f
10:40 5.5ft  -  6s 22 27 mph 1016.5mb 74f 72f
10:30  -   -   -  22 27 mph 1016.5mb 75f 72f
10:20  -   -   -  20 25 mph 1016.3mb 75f 72f
10:10  -   -   -  20 25 mph 1016.3mb 75f 72f
10:00  -   -   -  20 25 mph 1016.3mb 75f 72f
9:50 5.5ft 11s 6s 20 25 mph 1016.1mb 75f 72f
9:40 5.5ft  -  6s 20 25 mph 1016mb 75f 72f
9:30  -   -   -  18 22 mph 1016mb 75f 72f
9:20  -   -   -  20 25 mph 1016mb 75f 72f
9:10  -   -   -  20 25 mph 1016.1mb - 72f
9:00  -   -   -  18 22 mph 1016.1mb 75f 72f
8:50 5ft 10s 6s 20 25 mph 1016.3mb 75f 72f
8:40 5ft  -  6s 20 25 mph 1016.1mb 75f 73f
8:30  -   -   -  20 25 mph 1016.1mb 75f 73f
8:20  -   -   -  18 25 mph 1016mb 75f 73f
8:10  -   -   -  20 22 mph 1016mb 75f 73f
8:00  -   -   -  18 22 mph 1016mb 76f 73f
7:50 5ft 10s 5s 18 20 mph 1016mb 75f 73f
7:40 5ft  -  5s 18 22 mph 1015.9mb 75f 73f
7:30  -   -   -  18 22 mph 1015.9mb 76f 73f
7:20  -   -   -  18 22 mph 1015.8mb 75f 73f
7:10  -   -   -  20 22 mph 1015.6mb 76f 73f
7:00  -   -   -  18 22 mph 1015.6mb 76f 73f
6:50 4.5ft 10s 5s 18 22 mph 1015.6mb 75f 73f
6:40 4.5ft  -  5s 18 22 mph 1015.5mb 75f 73f
6:30  -   -   -  18 22 mph 1015.4mb 75f 73f
6:20  -   -   -  18 22 mph 1015.1mb 75f 73f
6:10  -   -   -  18 22 mph 1015.3mb 75f 73f
6:00  -   -   -  18 25 mph 1015.5mb 75f 73f
5:50 5.5ft 10s 6s 20 25 mph 1015.5mb 75f 73f
5:40 5.5ft  -  6s 18 25 mph 1015.4mb 75f 72f
5:30  -   -   -  18 22 mph 1015.5mb 75f 72f
5:20  -   -   -  18 22 mph 1015.3mb 75f 72f
5:10  -   -   -  20 25 mph 1015.3mb 75f 72f
5:00  -   -   -  20 25 mph 1014.6mb 75f 72f
4:50 5ft 9s 5s 20 25 mph 1014.6mb 75f 72f
4:40 5ft  -  5s 18 22 mph 1015mb 75f 72f
4:30  -   -   -  18 22 mph 1015.1mb 75f 72f
4:20  -   -   -  18 22 mph 1015.3mb 75f 72f
4:10  -   -   -  18 25 mph 1015.3mb 75f 72f
4:00  -   -   -  18 29 mph 1015.4mb 75f 72f
3:50 5ft 10s 6s 18 22 mph 1015.5mb 75f 72f
3:40  -   -   -  18 20 mph 1015.6mb 75f 72f
3:30  -   -   -  18 22 mph 1015.9mb 74f 72f
3:20  -   -   -  16 20 mph 1016mb 74f 72f
3:10  -   -   -  18 20 mph 1016.3mb 74f 72f
3:00  -   -   -  16 20 mph 1016.4mb 74f 72f
2:50 5ft 10s 6s 16 20 mph 1016.4mb 74f 72f
2:40 5ft  -  6s 13 18 mph 1016.5mb 74f 72f
2:30  -   -   -  16 20 mph 1016.5mb 74f 72f
2:20  -   -   -  16 18 mph 1016.5mb 74f 72f
2:10  -   -   -  13 18 mph 1016.8mb 74f 72f
2:00  -   -   -  13 18 mph 1016.8mb 74f 72f
1:50 5ft 10s 7s 13 18 mph 1016.8mb 74f 72f
1:40 5ft  -  7s 13 18 mph 1016.9mb 74f 72f
1:30  -   -   -  16 20 mph 1016.9mb 74f 72f
1:20  -   -   -  13 18 mph 1016.8mb 74f 72f
1:10  -   -   -  13 16 mph 1016.9mb 74f 72f
1:00  -   -   -  13 18 mph 1017mb 75f 72f
12:50 5ft 10s 7s 13 16 mph 1017.3mb 75f 72f
12:40 5ft  -  7s 13 18 mph 1017.4mb 75f 72f
12:30  -   -   -  13 16 mph 1017.4mb 75f 72f
12:20  -   -   -  13 16 mph 1017.5mb 75f 72f
12:10  -   -   -  13 18 mph 1017.5mb 75f 72f
12:00  -   -   -  11 16 mph 1017.4mb 75f 72f
lun. 03/27 11:50 5ft 10s 7s 11 18 mph 1017.5mb 75f 72f
11:40 5ft  -  7s 13 16 mph 1017.4mb 76f 72f
11:30  -   -   -  13 16 mph 1017.4mb 76f 72f
11:20  -   -   -  11 16 mph 1017.5mb 76f 72f
11:10  -   -   -  13 18 mph 1017.5mb 76f 72f
11:00  -   -   -  11 16 mph 1017.5mb 76f 72f
10:50 4.5ft 10s 7s 13 18 mph 1017.5mb 76f 72f
10:40 4.5ft  -  7s 13 16 mph 1017.5mb 76f 72f
10:30  -   -   -  11 16 mph 1017.5mb 76f 72f
10:20  -   -   -  11 18 mph 1017.5mb 76f 72f
10:10  -   -   -  11 16 mph 1017.5mb 76f 72f
10:00  -   -   -  13 18 mph 1017.5mb 76f 72f
9:50 4.5ft 11s 7s 13 16 mph 1017.5mb 76f 72f
9:40  -   -   -  13 18 mph 1017.5mb 76f 72f
9:30  -   -   -  13 18 mph 1017.4mb 76f 72f
9:20  -   -   -  11 16 mph 1017.4mb 76f 72f
9:10  -   -   -  11 16 mph 1017.4mb 76f 72f
9:00  -   -   -  11 13 mph 1017.3mb 76f 72f
8:50 4.5ft 10s 8s 11 16 mph 1017.3mb 76f 72f
8:40  -   -   -  11 13 mph 1017.1mb 76f 72f
8:30  -   -   -  11 16 mph 1017mb 76f 72f
8:20  -   -   -  11 13 mph 1017.1mb 76f 72f
8:10  -   -   -  11 13 mph 1017.1mb 76f 72f
8:00  -   -   -  11 16 mph 1017.3mb 76f 72f
7:50 4ft 10s 7s 9 16 mph 1017.3mb 76f 72f
7:40 4ft  -  7s 9 11 mph 1017.1mb 76f 72f
7:30  -   -   -  9 11 mph 1017.1mb 77f 72f
7:20  -   -   -  9 11 mph 1017.4mb 77f 72f
7:10  -   -   -  9 13 mph 1017.4mb 77f 72f
7:00  -   -   -  9 13 mph 1017.4mb 77f 72f
6:50 4ft 11s 7s 9 11 mph 1017.4mb 77f 72f
6:40  -   -   -  9 11 mph 1017.5mb 77f 72f
6:30  -   -   -  9 11 mph 1017.4mb 77f 72f
6:20  -   -   -  7 11 mph 1017.4mb 77f 72f
6:10  -   -   -  9 13 mph 1017.4mb 77f 72f
6:00  -   -   -  9 11 mph 1017.4mb - -
5:50 4.5ft 10s 7s 7 11 mph 1017.5mb 77f 72f
5:40 4.5ft  -  7s 9 13 mph 1017.5mb 77f 72f
5:30  -   -   -  7 11 mph 1017.5mb 77f 72f
5:20  -   -   -  4 9 mph 1017.5mb 77f 72f
5:10  -   -   -  4 9 mph 1017.6mb 77f 72f
5:00  -   -   -  4
mph
1017.8mb 77f 71f
4:50 4ft 10s 7s 2 4 mph 1017.9mb 77f 72f
4:40  -   -   -  2 4 mph 1018mb 77f 72f
4:30  -   -   -   -  4 mph 1018mb 77f 71f
4:20  -   -   -  2 4 mph 1018.3mb 77f 71f
4:10  -   -   -  2 7 mph 1018.5mb 77f 71f
4:00  -   -   -  4 9 mph 1018.6mb 77f 71f
3:50 4ft 10s 6s 7 9 mph 1018.9mb 77f 71f
3:40 4ft  -  6s 7 9 mph 1019mb 77f 71f
3:30  -   -   -  7 11 mph 1019.1mb 77f 71f
3:20  -   -   -  7 11 mph 1019.3mb 77f 71f
3:10  -   -   -  9 11 mph 1019.5mb 77f 71f
3:00  -   -   -  7 9 mph 1019.5mb 77f 71f
2:50 4ft 10s 6s 7 11 mph 1019.6mb 76f 71f
2:40 4ft  -  6s 7 11 mph 1019.9mb 76f 72f
2:30  -   -   -  9 11 mph 1020mb 76f 72f
2:20  -   -   -  7 11 mph 1020.1mb 76f 72f
2:10  -   -   -  7 11 mph 1020.3mb 76f 72f
2:00  -   -   -  7 11 mph 1020.3mb 76f 72f
1:50 3.5ft 9s 6s 7 11 mph 1020.5mb 76f 72f
1:40 3.5ft  -  6s 7 9 mph 1020.5mb 76f 72f
1:30  -   -   -  7 11 mph 1020.6mb 76f 72f
1:20  -   -   -  7 9 mph 1020.9mb 76f 72f
1:10  -   -   -  7 9 mph 1021mb 76f 72f
1:00  -   -   -  4 9 mph 1021.1mb 76f 72f
12:50 4ft 10s 6s 7 11 mph 1021.1mb 76f 72f
12:40  -   -   -  7 9 mph 1021.3mb 76f 72f
12:30  -   -   -  7 9 mph 1021.4mb - 72f
12:20  -   -   -  7 9 mph 1021.4mb 76f 72f
12:10  -   -   -  7 9 mph 1021.5mb 76f 72f
12:00  -   -   -  7 9 mph 1021.5mb 76f 72f
11:50 3.5ft 10s 6s 4 9 mph 1021.5mb 76f 72f
11:40  -   -   -  2 7 mph 1021.5mb 76f 72f
11:30  -   -   -  4 9 mph 1021.5mb 76f 72f
11:20  -   -   -  4 9 mph 1021.5mb 76f 72f
11:10  -   -   -  4 7 mph 1021.5mb 76f 72f
11:00  -   -   -  4 7 mph 1021.5mb 76f 72f
10:50 4ft 9s 6s 4 11 mph 1021.5mb 76f 72f
10:40 4ft  -  6s 4 7 mph 1021.4mb 76f 72f
10:30  -   -   -  4 9 mph 1021.4mb 76f 72f
10:20  -   -   -  4 7 mph 1021.5mb 76f 72f
10:10  -   -   -  4 7 mph 1021.5mb 76f 72f
10:00  -   -   -  4 7 mph 1021.4mb - 72f
9:50 4ft 10s 6s 4 7 mph 1021.4mb 76f 72f
9:40  -   -   -  4 7 mph - 76f 72f
9:30  -   -   -  4 9 mph 1021.3mb 76f 72f
9:20  -   -   -  4 7 mph 1021.1mb 76f 72f
9:10  -   -   -  7 9 mph 1021.1mb 76f 72f
9:00  -   -   -  4 7 mph 1021mb 76f 72f
8:50 3.5ft 10s 6s 4 9 mph 1021mb 76f 72f
8:40 3.5ft  -  6s 4 9 mph 1021mb 76f 72f
8:30  -   -   -  4 9 mph 1021mb 76f 72f
8:20  -   -   -  4 9 mph 1021mb 76f 72f
8:10  -   -   -  4 9 mph 1021mb 76f 72f
8:00  -   -   -  4 9 mph 1020.8mb 76f 72f
7:50 3.5ft 9s 5s 4 7 mph 1020.8mb 76f 71f
7:40 3.5ft  -  5s 7 11 mph 1020.5mb 76f 71f
7:30  -   -   -  7 9 mph 1020.5mb 76f 71f
7:20  -   -   -  7 9 mph 1020.5mb 76f 71f
7:10  -   -   -  4 9 mph 1020.5mb 76f 71f
7:00  -   -   -  7 11 mph 1020.4mb 76f 71f
6:50 3.5ft 10s 6s 7 11 mph 1020.3mb 76f 71f
6:40  -   -   -  9 11 mph 1020.1mb 76f 71f
6:30  -   -   -  7 11 mph 1020mb 76f 71f
6:20  -   -   -  9 11 mph 1020mb 76f 71f
6:10  -   -   -  9 13 mph 1019.9mb 76f 71f
6:00  -   -   -  9 13 mph 1019.8mb 76f 71f
5:50 4ft 9s 5s 11 16 mph 1019.6mb 76f 71f
5:40 4ft  -  5s 11 16 mph 1019.6mb 76f 71f
5:30  -   -   -  11 13 mph 1019.5mb 76f 71f
5:20  -   -   -  11 16 mph 1019.5mb 76f 71f
5:10  -   -   -  13 16 mph 1019.5mb 76f 71f
5:00  -   -   -  13 18 mph 1019.5mb 76f 71f
4:50 4ft 10s 5s 11 16 mph 1019.5mb 76f 71f
4:40 4ft  -  5s 13 18 mph 1019.6mb 76f 71f
4:30  -   -   -  11 13 mph 1019.9mb 76f 71f
4:20  -   -   -  11 16 mph 1019.9mb 76f 71f
4:10  -   -   -  11 16 mph 1019.9mb 76f 71f
4:00  -   -   -  11 13 mph 1019.9mb 76f 71f
3:50 4ft 9s 5s 11 16 mph 1020mb 76f 71f
3:40  -   -   -  13 18 mph 1020mb 76f 71f
3:30  -   -   -  11 16 mph 1020mb 76f 71f
3:20  -   -   -  11 18 mph 1020.1mb 76f 71f
3:10  -   -   -  11 16 mph 1020.3mb 76f 71f
3:00  -   -   -  11 18 mph 1020.4mb 76f 71f
2:50 4ft 9s 5s 13 16 mph 1020.5mb 76f 71f
2:40 4ft  -  5s 11 16 mph 1020.6mb 76f 71f
2:30  -   -   -  11 16 mph 1020.8mb 76f 71f
2:20  -   -   -  11 16 mph 1020.9mb 76f 71f
2:10  -   -   -  13 18 mph 1021mb 76f 71f
2:00  -   -   -  11 16 mph 1021mb 76f 71f
1:50 4ft 9s 5s 13 16 mph 1021.1mb 76f 71f
1:40  -   -   -  13 18 mph 1021.1mb 76f 71f
1:30  -   -   -  11 18 mph 1021.4mb 76f 71f
1:20  -   -   -  13 18 mph 1021.5mb 76f 71f
1:10  -   -   -  16 18 mph 1021.5mb 76f 71f
1:00  -   -   -  13 18 mph 1021.6mb 76f 71f
12:50 4ft 9s 5s 13 18 mph 1021.8mb 76f 71f
12:40 4ft  -  5s 13 18 mph 1021.8mb 76f 71f
12:30  -   -   -  13 18 mph 1021.9mb 76f 71f
12:20  -   -   -  13 18 mph 1022mb 76f 71f
12:10  -   -   -  13 20 mph 1022mb 76f 71f
12:00  -   -   -  13 18 mph 1022mb 76f 71f
dim. 03/26 11:50 3.5ft 9s 5s 13 18 mph 1022.1mb 76f 71f
11:40 3.5ft  -  5s 13 18 mph 1022.1mb 76f 71f
11:30  -   -   -  16 18 mph 1022.4mb 76f 71f
11:20  -   -   -  16 20 mph 1022.4mb 76f 71f
11:10  -   -   -  16 18 mph 1022.5mb 76f 71f
11:00  -   -   -  16 20 mph 1022.5mb 76f 71f
10:50 3.5ft 10s 5s 13 20 mph 1022.6mb 76f 71f
10:40  -   -   -  13 18 mph 1022.6mb 76f 71f
10:30  -   -   -  13 18 mph 1022.6mb 76f 71f
10:20  -   -   -  16 20 mph 1022.6mb 76f 71f
10:10  -   -   -  13 18 mph 1022.5mb 76f 71f
10:00  -   -   -  13 18 mph 1022.5mb 76f 71f
9:50 3.5ft 10s 5s 13 20 mph 1022.5mb 76f 71f
9:40  -   -   -  13 18 mph 1022.5mb 76f 71f
9:30  -   -   -  13 18 mph 1022.5mb 76f 71f
9:20  -   -   -  16 18 mph 1022.4mb 76f 71f
9:10  -   -   -  16 18 mph 1022.3mb 76f 71f
9:00  -   -   -  16 20 mph 1022.3mb 76f 71f
8:50 3.5ft 8s 5s 13 20 mph 1022mb 76f 71f
8:40  -   -   -  13 18 mph 1022mb 76f 71f
8:30  -   -   -  16 20 mph 1022mb 76f 71f
8:20  -   -   -  13 20 mph 1021.8mb 76f 71f
8:10  -   -   -  13 20 mph 1021.9mb 76f 71f
8:00  -   -   -  13 18 mph 1021.9mb 76f 71f
7:50 3.5ft 9s 5s 13 18 mph 1022mb 76f 71f
7:40  -   -   -  13 18 mph 1022mb 76f 71f
7:30  -   -   -  13 16 mph 1022mb 76f 71f
7:20  -   -   -  13 16 mph 1022mb 76f 71f
7:10  -   -   -  11 16 mph 1022mb 76f 71f
7:00  -   -   -  11 16 mph 1022mb 76f 71f
6:50 3.5ft 7s 5s 11 16 mph 1022mb 76f 71f
6:40 3.5ft  -  5s 11 16 mph 1022.1mb 76f 71f
6:30  -   -   -  11 16 mph 1022.1mb 76f 71f
6:20  -   -   -  11 16 mph 1022mb 76f 71f
6:10  -   -   -  11 16 mph 1022mb 76f 71f
6:00  -   -   -  11 13 mph 1022mb 76f 71f
5:50 3.5ft 7s 5s 11 13 mph 1022mb 76f 71f
5:40 3.5ft  -  5s 11 13 mph 1022mb 76f 71f
5:30  -   -   -  11 13 mph 1022mb 76f 71f
5:20  -   -   -  11 16 mph 1022mb 76f 71f
5:10  -   -   -  11 16 mph 1022.1mb 76f 71f
5:00  -   -   -  11 16 mph 1022.1mb 76f 71f
4:50 3.5ft 8s 5s 13 16 mph 1022mb 76f 72f
4:40 3.5ft  -  5s 13 18 mph 1022mb 76f 72f
4:30  -   -   -  13 18 mph 1022.1mb 76f 72f
4:20  -   -   -  13 18 mph 1022.1mb 76f 72f
4:10  -   -   -  13 18 mph 1022.1mb 76f 72f
4:00  -   -   -  13 18 mph 1022.3mb 76f 72f
3:50 4ft 8s 5s 13 16 mph 1022.3mb 75f 72f
3:40 4ft  -  5s 13 18 mph 1022.4mb 75f 72f
3:30  -   -   -  13 18 mph 1022.5mb 75f 72f
3:20  -   -   -  16 20 mph 1022.5mb 75f 72f
3:10  -   -   -  13 18 mph 1022.5mb 75f 72f
3:00  -   -   -  13 18 mph 1022.6mb 75f 71f
2:50 4ft 9s 4s 13 20 mph 1022.8mb 75f 71f
2:40 4ft  -  4s 13 20 mph 1022.8mb 75f 71f
2:30  -   -   -  16 18 mph 1022.8mb 75f 71f
2:20  -   -   -  16 20 mph 1023mb 75f 71f
2:10  -   -   -  16 22 mph 1023mb 75f 71f
2:00  -   -   -  16 20 mph 1023.3mb 75f 71f
1:50 4ft 9s 5s 16 18 mph 1023.4mb 75f 71f
1:40 4ft  -  5s 16 20 mph 1023.5mb 74f 71f
1:30  -   -   -  16 18 mph 1023.5mb 74f 71f
1:20  -   -   -  13 18 mph 1023.5mb 74f 71f
1:10  -   -   -  13 18 mph 1023.8mb 74f 71f
1:00  -   -   -  13 18 mph 1023.9mb 74f 71f
12:50 3.5ft 6s 5s 13 20 mph 1024mb 74f 71f
12:40 3.5ft  -  5s 13 18 mph 1024mb 74f 71f
12:30  -   -   -  13 20 mph 1024.2mb 74f 71f
12:20  -   -   -  16 18 mph 1024.2mb 74f 71f
12:10  -   -   -  13 18 mph 1024.2mb 74f 71f
12:00  -   -   -  16 18 mph 1024.2mb 74f 71f
11:50 3.5ft 8s 5s 16 20 mph 1024mb 74f 71f
11:40 3.5ft  -  5s 16 20 mph 1024.2mb 74f 71f
11:30  -   -   -  16 20 mph 1024.3mb 74f 72f
11:20  -   -   -  16 22 mph 1024.3mb 74f 71f
11:10  -   -   -  16 20 mph 1024.3mb 74f 71f
11:00  -   -   -  16 20 mph 1024.3mb 74f 71f
10:50 3.5ft 8s 5s 16 20 mph 1024.3mb 74f 71f
10:40 3.5ft  -  5s 16 22 mph 1024.3mb 74f 71f
10:30  -   -   -  16 20 mph 1024.3mb 74f 71f
10:20  -   -   -  16 20 mph 1024.3mb 74f 71f
10:10  -   -   -  16 18 mph 1024.2mb 74f 71f
10:00  -   -   -  16 18 mph 1024mb 74f 71f
9:50 3.5ft  -  5s 16 20 mph - 74f 71f
9:40 3.5ft  -  5s 16 20 mph 1023.9mb 74f 71f
9:30  -   -   -  13 18 mph 1023.9mb 74f 72f
9:20  -   -   -  11 16 mph 1023.9mb 74f 71f
9:10  -   -   -  13 18 mph 1024mb 74f 71f
9:00  -   -   -  13 20 mph 1023.8mb - -
8:50 3.5ft 8s 5s 13 18 mph 1023.6mb 75f 70f
8:40 3.5ft  -  5s 13 16 mph 1023.6mb 75f 70f
8:30  -   -   -  13 16 mph 1023.6mb 75f 70f
8:20  -   -   -  13 16 mph 1023.6mb 75f 69f
8:10  -   -   -  13 16 mph 1023.6mb 75f 69f
8:00  -   -   -  13 18 mph 1023.5mb 75f 70f
7:50 4ft 9s 5s 13 16 mph 1023.4mb 75f 70f
7:40 4ft  -  5s 16 18 mph 1023.4mb 75f 69f
7:30  -   -   -  16 20 mph 1023.4mb 75f 69f
7:20  -   -   -  16 20 mph 1023.3mb 75f 70f
7:10  -   -   -  13 18 mph 1023.1mb 75f 70f
7:00  -   -   -  11 16 mph 1023.3mb 75f 70f
6:50 3.5ft 8s 5s 11 13 mph 1023.3mb 75f 70f
6:40 3.5ft  -  5s 13 18 mph 1023mb 75f 70f
6:30  -   -   -  11 16 mph 1023mb 75f 70f
6:20  -   -   -  11 16 mph 1023mb 75f 70f
6:10  -   -   -  13 16 mph 1022.9mb 75f 70f
6:00  -   -   -  13 16 mph 1022.8mb 75f 71f
5:50 4ft 8s 5s 11 16 mph 1022.6mb 75f 71f
5:40 4ft  -  5s 11 16 mph 1022.5mb 75f 71f
5:30  -   -   -  9 13 mph 1022.5mb 75f 70f
5:20  -   -   -  11 16 mph 1022.5mb 75f 71f
5:10  -   -   -  13 18 mph 1022.5mb 75f 71f
5:00  -   -   -  16 20 mph 1022.5mb 75f 71f
4:50 4ft 8s 5s 13 20 mph 1022.4mb 75f 70f
4:40 4ft  -  5s 16 20 mph 1022.5mb 74f 70f
4:30  -   -   -  16 20 mph 1022.5mb 74f 70f
4:20  -   -   -  18 22 mph 1022.5mb 74f 70f
4:10  -   -   -  18 22 mph 1022.5mb 74f 70f
4:00  -   -   -  20 25 mph 1022.5mb 74f 71f
3:50 4.5ft 8s 4s 18 25 mph 1022.4mb 74f 71f
3:40 4.5ft  -  4s 18 22 mph 1022.5mb 74f 71f
3:30  -   -   -  20 25 mph 1022.5mb 74f 71f
3:20  -   -   -  20 25 mph 1022.5mb 74f 70f
3:10  -   -   -  18 25 mph 1022.8mb 74f 70f
3:00  -   -   -  18 22 mph 1023mb 74f 70f
2:50 3.5ft 7s 4s 18 22 mph 1023mb 74f 71f
2:40 3.5ft  -  4s 18 22 mph 1023mb 74f 71f
2:30  -   -   -  16 22 mph 1023.3mb 74f 70f
2:20  -   -   -  16 20 mph 1023.4mb 73f 70f
2:10  -   -   -  16 20 mph 1023.5mb 73f 70f
2:00  -   -   -  16 25 mph 1023.6mb 73f 70f
1:50 3.5ft 6s 4s 18 22 mph 1023.9mb 73f 70f
1:40 3.5ft  -  4s 16 22 mph 1024mb 73f 70f
1:30  -   -   -  18 22 mph 1024mb 73f 71f
1:20  -   -   -  16 22 mph 1024mb 73f 71f
1:10  -   -   -  18 25 mph 1024.2mb 73f 70f
1:00  -   -   -  16 18 mph 1024.3mb 73f 71f
12:50 4ft 7s 5s 16 22 mph 1024.3mb 73f 71f
12:40  -   -   -  18 22 mph 1024.3mb 73f 71f
12:30  -   -   -  18 25 mph 1024.3mb 73f 71f
12:20  -   -   -  18 27 mph 1024.3mb 73f 70f
12:10  -   -   -  18 22 mph 1024.5mb 73f 71f
12:00  -   -   -  18 25 mph 1024.5mb 73f 70f
sam. 03/25 11:50 3.5ft 8s 5s 18 22 mph 1024.7mb 73f 70f
11:40 3.5ft  -  5s 18 25 mph 1024.5mb 73f 70f
11:30  -   -   -  16 20 mph 1024.7mb 73f 70f
11:20  -   -   -  16 20 mph 1024.8mb 73f 71f
11:10  -   -   -  16 20 mph 1024.8mb 73f 71f
11:00  -   -   -  16 20 mph 1024.8mb 74f 70f
10:50 3.5ft 7s 5s 16 20 mph 1024.8mb 74f 70f
10:40  -   -   -  16 20 mph 1024.8mb 74f 70f
10:30  -   -   -  16 20 mph 1024.8mb 74f 70f
10:20  -   -   -  13 18 mph 1025mb 74f 70f
10:10  -   -   -  16 18 mph 1025mb 74f 70f
10:00  -   -   -  13 18 mph 1024.8mb 74f 70f
9:50 3.5ft 8s 5s 13 18 mph 1025mb 74f 70f
9:40  -   -   -  13 18 mph 1024.8mb 74f 70f
9:30  -   -   -  13 16 mph 1024.8mb 74f 70f
9:20  -   -   -  13 18 mph 1024.8mb 74f 70f
9:10  -   -   -  11 16 mph 1025mb 74f 70f
9:00  -   -   -  11 16 mph 1024.8mb 74f 70f
8:50 3.5ft  -  5s 11 16 mph - 74f 70f
8:40 3.5ft  -  5s 13 16 mph 1024.8mb 74f 70f
8:30  -   -   -  13 18 mph 1024.7mb 74f 70f
8:20  -   -   -  11 16 mph 1024.7mb 74f 70f
8:10  -   -   -  9 13 mph 1024.5mb 74f 69f
8:00  -   -   -  13 18 mph 1024.5mb 74f 69f
7:50 3.5ft 8s 5s 11 16 mph 1024.5mb 74f 70f
7:40 3.5ft  -  5s 11 16 mph 1024.5mb 74f 69f
7:30  -   -   -  13 16 mph 1024.5mb 74f 69f
7:20  -   -   -  11 16 mph 1024.5mb 74f 70f
7:10  -   -   -  11 16 mph 1024.5mb 74f 70f
7:00  -   -   -  11 18 mph 1024.5mb 74f 70f
6:50 3.5ft 8s 5s 11 16 mph 1024.5mb 74f 70f
6:40  -   -   -  11 16 mph 1024.5mb 74f 69f
6:30  -   -   -  13 16 mph 1024.5mb 74f 70f
6:20  -   -   -  11 16 mph 1024.5mb 74f 70f
6:10  -   -   -  11 16 mph 1024.5mb 74f 70f
6:00  -   -   -  13 16 mph 1024.5mb 74f 70f
5:50 3.5ft 8s 4s 13 16 mph 1024.5mb 74f 70f
5:40  -   -   -  16 18 mph 1024.5mb 74f 70f
5:30  -   -   -  13 18 mph 1024.7mb 74f 70f
5:20  -   -   -  16 18 mph 1024.7mb 74f 70f
5:10  -   -   -  16 18 mph 1024.7mb 74f 70f